This is the latest recevied weather packets stored in our database for station/object KG5WBN. If no packets are shown the sender has not sent any weather packets the latest 10 day(s).
| Time | Temp. | Humidity | Pressure | Rain* | Wind** | Luminosity | Snow |
|---|---|---|---|---|---|---|---|
| 1777817851 | 22.78° C | 27% | 1021.7 hPa | 0 mm | - | 186 W/m² | - |
| 1777817549 | 23.33° C | 27% | 1021.7 hPa | 0 mm | - | 179 W/m² | - |
| 1777817245 | 22.78° C | 28% | 1021.7 hPa | 0 mm | - | 152 W/m² | - |
| 1777816942 | 22.78° C | 31% | 1021.3 hPa | 0 mm | - | 97 W/m² | - |
| 1777816639 | 22.22° C | 31% | 1021.3 hPa | 0 mm | - | 154 W/m² | - |
| 1777816335 | 21.67° C | 34% | 1021.3 hPa | 0 mm | - | 142 W/m² | - |
| 1777816033 | 20.56° C | 35% | 1021.3 hPa | 0 mm | - | 53 W/m² | - |
| 1777815730 | 20° C | 37% | 1021 hPa | 0 mm | - | 69 W/m² | - |
| 1777815428 | 20.56° C | 38% | 1021.3 hPa | 0 mm | - | 42 W/m² | - |
| 1777815125 | 20° C | 44% | 1021.3 hPa | 0 mm | - | 40 W/m² | - |
| 1777814821 | 19.44° C | 46% | 1021.3 hPa | 0 mm | - | 47 W/m² | - |
| 1777814517 | 18.89° C | 50% | 1021 hPa | 0 mm | - | 46 W/m² | - |
| 1777814215 | 18.33° C | 54% | 1021.3 hPa | 0 mm | - | 42 W/m² | - |
| 1777813912 | 17.78° C | 55% | 1021.3 hPa | 0 mm | - | 38 W/m² | - |
| 1777813609 | 17.22° C | 56% | 1021.3 hPa | 0 mm | - | 37 W/m² | - |
| 1777813307 | 16.67° C | 61% | 1021 hPa | 0 mm | - | 27 W/m² | - |
| 1777813004 | 16.67° C | 62% | 1021 hPa | 0 mm | - | 28 W/m² | - |
| 1777812702 | 16.11° C | 64% | 1021 hPa | 0 mm | - | 26 W/m² | - |
| 1777812398 | 15.56° C | 68% | 1020.7 hPa | 0 mm | - | 23 W/m² | - |
| 1777812097 | 15.56° C | 71% | 1020.7 hPa | 0 mm | - | 22 W/m² | - |
| 1777811794 | 15° C | 73% | 1020.7 hPa | 0 mm | - | 23 W/m² | - |
| 1777811491 | 14.44° C | 75% | 1020.7 hPa | 0 mm | - | 21 W/m² | - |
| 1777811187 | 13.89° C | 75% | 1020.7 hPa | 0 mm | - | 20 W/m² | - |
| 1777810885 | 13.89° C | 76% | 1020.7 hPa | 0 mm | - | 19 W/m² | - |
| 1777810581 | 13.33° C | 76% | 1020.7 hPa | 0 mm | - | 18 W/m² | - |
* Rain latest hour (hover to see other rain measurements)
** Current wind speed in m/s (hover to see current wind gust speed)